Content
SEND FEEDBACK

Daily
Averages
Monthly
Summary
Thailand

RAYONG, THAILAND


Home > Asia > Thailand
Elevation: 16 feet     Latitude: 12 38N     Longitude: 101 21E

WEATHER
 
SELECT A DAY
Number of Records: 199,199;   Date Range: 7/1/96 - 9/16/14
 
SHARE

PRINT THIS DATA

[ ← Previous Day ]
WEATHER ALMANAC - FEBRUARY 5, 2013
[ Next Day → ]
[ °C ]   °F
Weather ElementAverageHighLow
Temperature81.2 °F89.6 °F (12:30 pm)73.4 °F (5:30 am)
Dewpoint73.1 °F75.2 °F (2:00 pm)69.8 °F (7:30 am)
Humidity77.3 %94 % (2:00 am)55 % (11:00 am)
Barometer29.92 in29.98 in (9:30 am)29.86 in (1:30 am)
Wind Speed5.3 mph9.2 mph (1:30 pm)
Weather ElementAverage
Visibility1.4 mi
Wind DirectionWSW (232 °)

Weather ElementTotal
Precipitation---
Cooling Degree Days16.5 (Base 65)
Growing Degree Days31.5 (Base 50)
Averaged from 44 records on February 5, 2013
WEATHER CONDITIONS BREAKOUT
WIND DIRECTION BREAKOUT
WEATHER BY HOUR - FEBRUARY 5, 2013
[ °C ]   °F
Local TimeTemperatureDewpointHumidityBarometerVisibilityWind DirectionWind SpeedGust SpeedPrecipitationEventsConditions
12:30 AM75.2 °F71.6 °F89 %29.92 in1.2 miNNW (340°)3.5 mphMist
1:00 AM77.0 °F73.4 °F89 %29.92 in1.2 miNNW (340°)3.5 mphMist
1:30 AM75.2 °F71.6 °F89 %29.86 in1.2 miNNW (340°)3.5 mphMist
2:00 AM75.2 °F73.4 °F94 %29.89 in1.2 miNNW (340°)3.5 mphMist
2:30 AM75.2 °F71.6 °F89 %29.89 in1.2 miNorth (350°)3.5 mphMist
3:00 AM75.2 °F73.4 °F94 %29.86 in1.2 miNNW (340°)3.5 mphMist
4:30 AM75.2 °F71.6 °F89 %29.86 in1.2 miNW (310°)3.5 mphMist
5:00 AM75.2 °F73.4 °F94 %29.89 in1.2 miNW (310°)3.5 mphMist
5:30 AM73.4 °F71.6 °F94 %29.89 in0.9 miNW (320°)3.5 mphMist
6:00 AM75.2 °F73.4 °F94 %29.89 in0.9 miNorth (350°)3.5 mphMist
6:30 AM73.4 °F71.6 °F94 %29.92 in0.6 miNorth (350°)2.3 mphMist
7:00 AM73.4 °F71.6 °F94 %29.92 in0.6 miNorth (350°)3.5 mphMist
7:30 AM73.4 °F69.8 °F88 %29.95 in0.6 miNW (320°)3.5 mphMostly Cloudy
8:00 AM77.0 °F71.6 °F83 %29.95 in0.6 miNW (320°)3.5 mphMostly Cloudy
8:30 AM78.8 °F73.4 °F83 %29.95 in0.6 miCalmMostly Cloudy
9:00 AM82.4 °F73.4 °F74 %29.95 in0.6 miSW (220°)3.5 mphMostly Cloudy
9:30 AM84.2 °F73.4 °F70 %29.98 in1.2 miWest (280°)3.5 mphMist
10:00 AM84.2 °F73.4 °F70 %29.98 in1.2 miWSW (240°)4.6 mphMist
10:30 AM86.0 °F73.4 °F66 %29.98 in1.9 miSSW (200°)5.8 mphMostly Cloudy
11:00 AM87.8 °F69.8 °F55 %29.95 in1.9 miSSE (160°)5.8 mphHaze
11:30 AM87.8 °F73.4 °F62 %29.95 in1.9 miSSE (160°)5.8 mphHaze
12:00 PM87.8 °F71.6 °F58 %29.95 in2.5 miSSE (150°)4.6 mphHaze
12:30 PM89.6 °F73.4 °F59 %29.92 in2.5 miSouth (180°)5.8 mphHaze
1:00 PM87.8 °F71.6 °F58 %29.92 in2.5 miSouth (180°)6.9 mphHaze
1:30 PM87.8 °F73.4 °F62 %29.89 in2.5 miSouth (170°)9.2 mphHaze
2:00 PM86.0 °F75.2 °F70 %29.89 in2.5 miSouth (190°)9.2 mphMostly Cloudy
2:30 PM87.8 °F73.4 °F62 %29.89 in2.5 miSSW (200°)9.2 mphHaze
3:30 PM86.0 °F73.4 °F66 %29.86 in1.9 miSouth (190°)9.2 mphMostly Cloudy
4:00 PM86.0 °F75.2 °F70 %29.86 in1.9 miSouth (190°)9.2 mphRainLight Rain Showers
4:30 PM84.2 °F75.2 °F74 %29.86 in1.9 miSSW (200°)6.9 mphMostly Cloudy
5:00 PM84.2 °F75.2 °F74 %29.86 in1.2 miSSW (210°)6.9 mphMostly Cloudy
5:30 PM84.2 °F75.2 °F74 %29.89 in1.2 miSSW (200°)6.9 mphMostly Cloudy
6:00 PM82.4 °F75.2 °F79 %29.89 in1.2 miSW (230°)4.6 mphMostly Cloudy
6:30 PM82.4 °F75.2 °F79 %29.89 in1.2 miSSW (200°)6.9 mphMostly Cloudy
7:00 PM82.4 °F73.4 °F74 %29.89 in1.2 miSSW (200°)6.9 mphScattered Clouds
7:30 PM82.4 °F73.4 °F74 %29.92 in1.2 miSouth (180°)6.9 mphScattered Clouds
8:00 PM80.6 °F73.4 °F79 %29.92 in1.2 miSSW (200°)6.9 mphScattered Clouds
8:30 PM80.6 °F73.4 °F79 %29.92 in1.2 miSSW (200°)6.9 mphThunderstormThunderstorm
9:00 PM82.4 °F73.4 °F74 %29.95 in1.2 miENE (60°)3.5 mphThunderstormThunderstorm
9:30 PM80.6 °F73.4 °F79 %29.95 in1.2 miSSE (160°)3.5 mphMostly Cloudy
10:00 PM80.6 °F73.4 °F79 %29.95 in1.2 miSSW (210°)4.6 mphMostly Cloudy
10:30 PM82.4 °F73.4 °F74 %29.95 in1.2 miSouth (180°)6.9 mphMostly Cloudy
11:00 PM82.4 °F73.4 °F74 %29.95 in1.2 miSSW (200°)9.2 mphMostly Cloudy
11:30 PM82.4 °F73.4 °F74 %29.95 in1.2 miSouth (190°)6.9 mphMostly Cloudy
Hourly data recorded from VTBU, located miles away from Rayong, Thailand







STORIES FROM OUR PARTNERS